Location: ?????????
(54.7630°N, 39.4991°E)
Time: 14:41:16
(UTC+00:00)

NOAA 11 - Pass Details

Date: 14 April 2026
Orbit: 831 x 848 km, 98.6° (Epoch: 16 May)

Event Time Altitude Azimuth Distance (km) Brightness Sun altitude
Rises 23:43:44 0° 17° (NNE) 3,393 8.6 -19.0°
Reaches altitude 10° 23:46:07 10° 20° (NNE) 2,454 7.7 -18.8°
Maximum altitude 23:51:33 69° 104° (ESE) 894 4.4 -18.3°
Enters shadow 23:54:55 24° 182° (S) 1,681 5.3 -18.0°
